Regional Weather Roundup
Issued by NWS

Home | Current Version | Previous Version | Text Only | Print | Product List | Glossary On
Versions: 1 2 3 4 5 6 7 8 9 10 11 12 13 14 15 16 17 18 19 20 21 22 23 24 25 26 27 28 29 30 31 32 33 34 35 36 37 38 39 40 41 42 43 44 45 46 47 48 49 50
000
ASUS44 KJAN 042310
RWRMS

MISSISSIPPI HOURLY WEATHER ROUNDUP
NATIONAL WEATHER SERVICE JACKSON MS
500 PM CST WED MAR 04 2015

NOTE: "FAIR: INDICATES FEW OR NO CLOUDS BELOW 12,000 FEET WITH NO
SIGNIFICANT WEATHER AND/OR OBSTRUCTIONS TO VISIBILITY.

MSZ001>002-007>008-010>013-018>021-025>028-034>036-050000-
NORTHWEST MISSISSIPPI

CITY           SKY/WX    TMP DP  RH WIND       PRES   REMARKS
CLARKSDALE     CLOUDY    32  32 100 N24G41    30.03R VSB 3/4 WCI  19
CLEVELAND      CLOUDY    38  37  95 N29G35    29.96R WCI  26
GREENWOOD      NOT AVBL
GREENVILLE     NOT AVBL
OXFORD         CLOUDY    36  36 100 N13G23    30.00R FOG     WCI  27
TUNICA         LGT SNOW  32  32 100 N17       30.06S WCI  21
$$

MSZ003>006-009-014>017-022>024-029>033-037>039-050000-
NORTHEAST MISSISSIPPI

CITY           SKY/WX    TMP DP  RH WIND       PRES   REMARKS
COLUMBUS AFB   CLOUDY    67  58  73 N26       29.84R
CORINTH        DRIZZLE   39  36  87 N14G26    29.99R WCI  31
STARKVILLE     CLOUDY    79  59  50 SW7G18    29.82R
TUPELO         NOT AVBL
$$

MSZ040-058-050000-
CENTRAL MISSISSIPPI

CITY           SKY/WX    TMP DP  RH WIND       PRES   REMARKS
JACKSON INTL   NOT AVBL
JACKSON HAWKNS NOT AVBL
MERIDIAN KEY   NOT AVBL
MERIDIAN NAS   SUNNY     75  67  76 S10       29.87S
VICKSBURG      NOT AVBL
$$

MSZ059>079-050000-
SOUTH MISSISSIPPI

CITY           SKY/WX    TMP DP  RH WIND       PRES   REMARKS
BROOKHAVEN     FAIR      81  72  74 S10G20    29.88S
HATTIESBURG    NOT AVBL
MCCOMB         NOT AVBL
NATCHEZ        NOT AVBL
PINE BELT      PTSUNNY   79  63  57 S9        29.89S
$$

MSZ080>082-050000-
COASTAL MISSISSIPPI

CITY           SKY/WX    TMP DP  RH WIND       PRES   REMARKS
BILOXI         MOSUNNY   69  68  97 S8G16     29.92F
PASCAGOULA     NOT AVBL
GULFPORT       NOT AVBL
$$



USA.gov is the U.S. government's official web portal to all federal, state and local government web resources and services.